Location: Palomar Mountain Lodge
(33.3110°N, 116.8495°W)
Time: 15:26:44
(UTC-07:00)

Cosmos 773 Rocket - Pass Details

Date: 19 May 2017
Orbit: 746 x 777 km, 74.1° (Epoch: 23 June)

Event Time Altitude Azimuth Distance (km) Brightness Sun altitude
Exits shadow 21:25:02 - 198° (SSW) 3,098 6.9 -18.6°
Reaches altitude 10° 21:27:09 10° 199° (SSW) 2,268 6.2 -19.0°
Maximum altitude 21:32:18 80° 286° (WNW) 763 4.0 -19.8°
Drops below altitude 10° 21:37:26 10° 14° (NNE) 2,266 6.8 -20.6°
Sets 21:39:48 0° 16° (NNE) 3,191 7.6 -20.9°
